Weather History for Shreveport, LA

Change the Weather History Date:

Tuesday, June 17, 2014

  Actual Average Record
Temperature  
Mean Temperature 83 °F 80 °F  
Max Temperature 92 °F 91 °F 102 °F (1881)
Min Temperature 73 °F 70 °F 57 °F (1917)
Degree Days  
Heating Degree Days 0 0  
Month to date heating degree days 0 0  
Since 1 June heating degree days 0 0  
Since 1 July heating degree days 2567 2226  
Cooling Degree Days 18 15  
Month to date cooling degree days 255 233  
Year to date cooling degree days 625 631  
Since 1 June cooling degree days 255 233  
Growing Degree Days 32 (Base 50)    
Moisture  
Dew Point 72 °F    
Average Humidity 75    
Maximum Humidity 93    
Minimum Humidity 56    
Precipitation  
Precipitation 0.01 in 0.20 in 1.67 in (1920)
Month to date precipitation 1.20 3.10  
Year to date precipitation 19.27 25.31  
Snow  
Snow 0.00 in - - ()
Month to date snowfall 0.0  
Since 1 June snowfall 0.0  
Since 1 July snowfall 1.0  
Snow Depth 0.00 in    
Sea Level Pressure  
Sea Level Pressure 30.03 in    
Wind  
Wind Speed 8 mph (South)    
Max Wind Speed 17 mph    
Max Gust Speed 28 mph    
Visibility 8 miles    
Events      
T = Trace of Precipitation, MM = Missing Value Source: NWS Daily Summary

Daily Weather History Graph

Daily Weather History Graph

Search for Another Location

Airport:

Trip Planner

Search our weather history database for the weather conditions in past years. The results will help you decide how hot, cold, wet, or windy it might be!

Date:

Astronomy

Jun. 17, 2014 Rise Set
Actual Time 6:07 AM CDT 8:24 PM CDT
Civil Twilight 5:39 AM CDT 8:53 PM CDT
Nautical Twilight 5:04 AM CDT 9:28 PM CDT
Astronomical Twilight 4:26 AM CDT 10:05 PM CDT
Moon No Moon Rise 11:07 AM CDT (6/17)
Length of Visible Light 15h 13m
Length of Day
14h 16m
Waning Gibbous, 73% of the Moon is Illuminated
Jun 17
Waning Gibbous
Jun 19
Last Quarter
Jun 27
New
Jul 5
First Quarter
Jul 12
Full

Hourly Weather History & Observations

Time (CDT) Temp. Heat Index Dew Point Humidity Pressure Visibility Wind Dir Wind Speed Gust Speed Precip Events Conditions
12:56 AM 75.9 °F - 72.0 °F 87% 30.03 in 10.0 mi South 6.9 mph - N/A   Clear
1:56 AM 75.0 °F - 72.0 °F 90% 30.03 in 8.0 mi SSE 5.8 mph - N/A   Clear
2:56 AM 73.9 °F - 72.0 °F 93% 30.02 in 7.0 mi SSE 8.1 mph - N/A   Partly Cloudy
3:56 AM 73.9 °F - 72.0 °F 93% 30.02 in 6.0 mi South 5.8 mph - N/A   Partly Cloudy
4:06 AM 73.4 °F - 71.6 °F 94% 30.03 in 6.0 mi South 5.8 mph - N/A   Partly Cloudy
4:56 AM 73.0 °F - 71.1 °F 93% 30.03 in 6.0 mi South 3.5 mph - N/A   Partly Cloudy
5:25 AM 73.4 °F - 71.6 °F 94% 30.04 in 5.0 mi South 5.8 mph - N/A   Mostly Cloudy
5:35 AM 73.4 °F - 71.6 °F 94% 30.04 in 5.0 mi South 4.6 mph - N/A   Partly Cloudy
5:56 AM 73.0 °F - 71.1 °F 93% 30.04 in 5.0 mi South 4.6 mph - N/A   Scattered Clouds
6:36 AM 73.4 °F - 71.6 °F 94% 30.06 in 4.0 mi South 3.5 mph - N/A   Mostly Cloudy
6:56 AM 73.9 °F - 72.0 °F 93% 30.05 in 4.0 mi SSE 3.5 mph - N/A   Mostly Cloudy
7:15 AM 75.2 °F - 73.4 °F 94% 30.06 in 4.0 mi SSE 4.6 mph - N/A   Mostly Cloudy
7:56 AM 77.0 °F - 73.9 °F 90% 30.06 in 6.0 mi South 5.8 mph - N/A   Mostly Cloudy
8:22 AM 78.8 °F - 73.4 °F 83% 30.07 in 8.0 mi SSW 6.9 mph - N/A   Mostly Cloudy
8:56 AM 79.0 °F - 73.0 °F 82% 30.07 in 8.0 mi South 12.7 mph - N/A   Mostly Cloudy
9:09 AM 80.6 °F 85.4 °F 73.4 °F 79% 30.08 in 9.0 mi South 11.5 mph - N/A   Scattered Clouds
9:56 AM 82.9 °F 89.4 °F 73.9 °F 74% 30.07 in 9.0 mi SSW 9.2 mph - N/A   Scattered Clouds
10:56 AM 86.0 °F 93.0 °F 73.0 °F 65% 30.06 in 10.0 mi SSW 12.7 mph - N/A   Scattered Clouds
11:56 AM 88.0 °F 95.6 °F 73.0 °F 61% 30.06 in 10.0 mi South 11.5 mph - N/A   Scattered Clouds
12:56 PM 88.0 °F 94.7 °F 72.0 °F 59% 30.05 in 10.0 mi South 9.2 mph - N/A   Scattered Clouds
1:56 PM 91.0 °F 99.3 °F 73.0 °F 55% 30.02 in 10.0 mi South 9.2 mph - N/A   Partly Cloudy
2:56 PM 91.0 °F 99.3 °F 73.0 °F 55% 30.00 in 10.0 mi SSE 9.2 mph - N/A   Scattered Clouds
3:56 PM 84.0 °F 91.9 °F 75.0 °F 74% 29.99 in 10.0 mi SSW 5.8 mph - 0.01 in   Scattered Clouds
4:56 PM 82.9 °F 87.0 °F 70.0 °F 65% 30.01 in 10.0 mi SSW 12.7 mph - N/A   Mostly Cloudy
5:56 PM 81.0 °F 84.1 °F 69.1 °F 67% 29.99 in 10.0 mi SSW 3.5 mph - N/A   Mostly Cloudy
6:56 PM 81.0 °F 84.1 °F 69.1 °F 67% 29.98 in 10.0 mi SSE 5.8 mph - N/A   Overcast
7:56 PM 80.1 °F 83.2 °F 70.0 °F 71% 29.98 in 10.0 mi SE 4.6 mph - N/A   Overcast
8:56 PM 79.0 °F - 71.1 °F 77% 29.98 in 10.0 mi SE 8.1 mph - N/A   Mostly Cloudy
9:56 PM 79.0 °F - 71.1 °F 77% 29.99 in 10.0 mi SE 6.9 mph - N/A   Mostly Cloudy
10:56 PM 77.0 °F - 72.0 °F 84% 30.00 in 10.0 mi SSE 6.9 mph - N/A   Scattered Clouds
11:56 PM 77.0 °F - 73.0 °F 88% 30.00 in 10.0 mi SSE 6.9 mph - N/A   Scattered Clouds